This is the latest recevied weather packets stored in our database for station/object DL1GHN-6. If no packets are shown the sender has not sent any weather packets the latest 1 day(s).
| Time | Temp. | Humidity | Pressure | Rain* | Wind** | Luminosity | Snow |
|---|---|---|---|---|---|---|---|
| 1778099384 | 11.11° C | 90% | 1010.5 hPa | 1.52 mm | - | 0 W/m² | - |
| 1778099085 | 11.11° C | 90% | 1010.5 hPa | 1.78 mm | - | 0 W/m² | - |
| 1778098785 | 11.11° C | 90% | 1010.5 hPa | 1.78 mm | - | 0 W/m² | - |
| 1778098484 | 11.11° C | 90% | 1010.5 hPa | 1.78 mm | - | 0 W/m² | - |
| 1778098184 | 11.11° C | 90% | 1010.4 hPa | 1.78 mm | - | 0 W/m² | - |
| 1778097884 | 11.11° C | 90% | 1010.4 hPa | 2.03 mm | - | 0 W/m² | - |
| 1778097284 | 11.11° C | 90% | 1010.3 hPa | 2.03 mm | - | 0 W/m² | - |
| 1778093985 | 11.67° C | 89% | 1009.7 hPa | 1.78 mm | - | 0 W/m² | - |
| 1778093684 | 11.67° C | 89% | 1009.5 hPa | 1.78 mm | - | 0 W/m² | - |
| 1778093384 | 11.67° C | 89% | 1009.4 hPa | 1.52 mm | - | 0 W/m² | - |
| 1778093085 | 11.67° C | 89% | 1009.3 hPa | 1.52 mm | - | 0 W/m² | - |
| 1778092785 | 11.67° C | 89% | 1009.2 hPa | 1.52 mm | - | 0 W/m² | - |
| 1778092485 | 11.67° C | 89% | 1009.1 hPa | 1.27 mm | - | 0 W/m² | - |
| 1778092185 | 11.67° C | 89% | 1009 hPa | 1.27 mm | - | 0 W/m² | - |
| 1778091884 | 11.67° C | 89% | 1008.9 hPa | 1.02 mm | - | 0 W/m² | - |
| 1778091585 | 11.67° C | 88% | 1008.9 hPa | 1.02 mm | - | 0 W/m² | - |
| 1778091285 | 11.67° C | 88% | 1008.9 hPa | 1.02 mm | - | 0 W/m² | - |
| 1778090984 | 11.67° C | 88% | 1008.8 hPa | 0.76 mm | - | 0 W/m² | - |
| 1778090685 | 11.67° C | 88% | 1008.7 hPa | 0.76 mm | - | 5 W/m² | - |
| 1778090084 | 11.67° C | 88% | 1008.6 hPa | 0.76 mm | - | 7 W/m² | - |
| 1778087985 | 11.67° C | 87% | 1008.3 hPa | 0.76 mm | - | 26 W/m² | - |
| 1778087684 | 12.22° C | 87% | 1008.2 hPa | 0.51 mm | - | 33 W/m² | - |
| 1778087085 | 12.22° C | 86% | 1008.3 hPa | 0.51 mm | - | 47 W/m² | - |
| 1778086785 | 12.22° C | 87% | 1008.3 hPa | 0.51 mm | - | 53 W/m² | - |
| 1778086184 | 12.22° C | 86% | 1008.3 hPa | 0.25 mm | - | 54 W/m² | - |
* Rain latest hour (hover to see other rain measurements)
** Current wind speed in m/s (hover to see current wind gust speed)